This is the latest recevied weather packets stored in our database for station/object K7CTM. If no packets are shown the sender has not sent any weather packets the latest 10 day(s).
| Time | Temp. | Humidity | Pressure | Rain* | Wind** | Luminosity | Snow |
|---|---|---|---|---|---|---|---|
| 1788469408 | 25.56° C | 25% | 1020 hPa | 0 mm | - | 276 W/m² | - |
| 1788469108 | 26.11° C | 25% | 1019.6 hPa | 0 mm | - | 283 W/m² | - |
| 1788468807 | 26.67° C | 24% | 1020 hPa | 0 mm | - | 468 W/m² | - |
| 1788468502 | 26.67° C | 24% | 1020 hPa | 0 mm | - | 527 W/m² | - |
| 1788468199 | 26.11° C | 25% | 1019.9 hPa | 0 mm | - | 819 W/m² | - |
| 1788467894 | 26.67° C | 24% | 1020.3 hPa | 0 mm | - | 840 W/m² | - |
| 1788467590 | 27.22° C | 24% | 1020 hPa | 0 mm | - | 708 W/m² | - |
| 1788467288 | 27.22° C | 24% | 1020.2 hPa | 0 mm | - | 840 W/m² | - |
| 1788466985 | 26.67° C | 25% | 1020.2 hPa | 0 mm | - | 278 W/m² | - |
| 1788466684 | 26.67° C | 24% | 1020.3 hPa | 0 mm | - | 136 W/m² | - |
| 1788466385 | 26.11° C | 25% | 1020.3 hPa | 0 mm | - | 572 W/m² | - |
| 1788466083 | 27.22° C | 24% | 1019.9 hPa | 0 mm | - | 720 W/m² | - |
| 1788465779 | 26.67° C | 24% | 1020.3 hPa | 0 mm | - | 657 W/m² | - |
| 1788465474 | 26.67° C | 24% | 1020.3 hPa | 0 mm | - | 786 W/m² | - |
| 1788465171 | 25.56° C | 24% | 1020.5 hPa | 0 mm | - | 877 W/m² | - |
| 1788464871 | 25° C | 25% | 1020.6 hPa | 0 mm | - | 885 W/m² | - |
| 1788464567 | 25° C | 25% | 1020.5 hPa | 0 mm | - | 534 W/m² | - |
| 1788464262 | 25° C | 25% | 1020.5 hPa | 0 mm | - | 263 W/m² | - |
| 1788463957 | 25° C | 24% | 1020.6 hPa | 0 mm | - | 822 W/m² | - |
| 1788463653 | 25° C | 25% | 1020.6 hPa | 0 mm | - | 188 W/m² | - |
| 1788463348 | 24.44° C | 26% | 1020.5 hPa | 0 mm | - | 613 W/m² | - |
| 1788463045 | 25° C | 25% | 1020.7 hPa | 0 mm | - | 188 W/m² | - |
| 1788462740 | 25° C | 25% | 1020.5 hPa | 0 mm | - | 852 W/m² | - |
| 1788462429 | 25.56° C | 25% | 1020.5 hPa | 0 mm | - | 856 W/m² | - |
| 1788462128 | 25° C | 25% | 1020.5 hPa | 0 mm | - | 803 W/m² | - |
* Rain latest hour (hover to see other rain measurements)
** Current wind speed in m/s (hover to see current wind gust speed)